• In Hungary
  • List of Countries
  • For 7 days
  • Water Temperature
  • Satellite Maps
  • Weather Map
  • News
  • Weather Widgets
  • user-avatar
    Login

    Hourly Weather Chroscina

    Today, 21 June, Thursday

    Time Temperature Precipitation Wind Pressure Humidity
    00:00 +20°C° 0 mm 2 mps 749 mmHg 76%
    01:00 +20°C° 0 mm 2 mps 748 mmHg 77%
    02:00 +20°C° 0 mm 2 mps 748 mmHg 78%
    03:00 +19°C° 0 mm 2 mps 748 mmHg 79%
    04:00 +19°C° 0 mm 2 mps 747 mmHg 80%
    05:00 +21°C° 0 mm 2 mps 747 mmHg 76%
    06:00 +22°C° 0 mm 3 mps 747 mmHg 72%
    07:00 +25°C° 0 mm 3 mps 746 mmHg 69%
    08:00 +27°C° 0.1 mm 3 mps 745 mmHg 64%
    09:00 +28°C° 0.1 mm 4 mps 745 mmHg 60%
    10:00 +29°C° 0.1 mm 4 mps 744 mmHg 56%
    11:00 +30°C° 0.1 mm 5 mps 744 mmHg 54%
    12:00 +32°C° 0.1 mm 5 mps 743 mmHg 53%
    13:00 +32°C° 0.1 mm 5 mps 742 mmHg 51%
    14:00 +32°C° 0.2 mm 6 mps 742 mmHg 54%
    15:00 +30°C° 0.2 mm 6 mps 742 mmHg 56%
    16:00 +30°C° 0.2 mm 6 mps 741 mmHg 58%
    17:00 +27°C° 1.2 mm 6 mps 742 mmHg 67%
    18:00 +23°C° 1.2 mm 6 mps 742 mmHg 75%
    19:00 +20°C° 1.2 mm 7 mps 743 mmHg 83%
    20:00 +19°C° 0 mm 6 mps 744 mmHg 80%
    21:00 +16°C° 0 mm 6 mps 745 mmHg 77%
    22:00 +15°C° 0 mm 5 mps 746 mmHg 74%
    23:00 +14°C° 0 mm 5 mps 746 mmHg 72%

    Tomorrow, 22 June, Friday

    Time Temperature Precipitation Wind Pressure Humidity
    00:00 +13°C° 0 mm 4 mps 746 mmHg 70%
    01:00 +11°C° 0 mm 4 mps 747 mmHg 67%
    02:00 +11°C° 0 mm 4 mps 747 mmHg 70%
    03:00 +10°C° 0 mm 4 mps 747 mmHg 73%
    04:00 +10°C° 0 mm 4 mps 748 mmHg 76%
    05:00 +10°C° 0 mm 4 mps 748 mmHg 73%
    06:00 +11°C° 0 mm 4 mps 748 mmHg 70%
    07:00 +12°C° 0 mm 5 mps 748 mmHg 67%
    08:00 +13°C° 0 mm 5 mps 748 mmHg 63%
    09:00 +14°C° 0 mm 5 mps 748 mmHg 58%
    10:00 +15°C° 0 mm 5 mps 748 mmHg 54%
    11:00 +15°C° 0.2 mm 5 mps 748 mmHg 56%
    12:00 +15°C° 0.2 mm 5 mps 748 mmHg 58%
    13:00 +15°C° 0.2 mm 5 mps 748 mmHg 59%
    14:00 +16°C° 0.2 mm 5 mps 748 mmHg 59%
    15:00 +16°C° 0.2 mm 6 mps 748 mmHg 58%
    16:00 +16°C° 0.2 mm 6 mps 748 mmHg 58%
    17:00 +15°C° 0.1 mm 5 mps 748 mmHg 63%
    18:00 +15°C° 0.1 mm 4 mps 748 mmHg 68%
    19:00 +14°C° 0.1 mm 3 mps 748 mmHg 73%
    20:00 +13°C° 0 mm 3 mps 748 mmHg 76%
    21:00 +11°C° 0 mm 3 mps 748 mmHg 80%
    22:00 +10°C° 0 mm 3 mps 749 mmHg 83%
    23:00 +10°C° 0 mm 3 mps 749 mmHg 84%

    Day after tomorrow, 23 June, Saturday

    Time Temperature Precipitation Wind Pressure Humidity
    00:00 +10°C° 0 mm 3 mps 749 mmHg 86%
    01:00 +9°C° 0 mm 3 mps 749 mmHg 87%
    02:00 +10°C° 0 mm 3 mps 749 mmHg 87%
    03:00 +10°C° 0 mm 4 mps 749 mmHg 86%
    04:00 +10°C° 0 mm 4 mps 749 mmHg 86%
    05:00 +10°C° 0.1 mm 5 mps 749 mmHg 85%
    06:00 +10°C° 0.1 mm 5 mps 749 mmHg 83%
    07:00 +11°C° 0.1 mm 6 mps 749 mmHg 82%
    08:00 +11°C° 0.1 mm 6 mps 749 mmHg 76%
    09:00 +13°C° 0.1 mm 6 mps 749 mmHg 70%
    10:00 +12°C° 0.1 mm 7 mps 749 mmHg 65%
    11:00 +14°C° 0.1 mm 7 mps 749 mmHg 65%
    12:00 +14°C° 0.1 mm 6 mps 749 mmHg 65%
    13:00 +14°C° 0.1 mm 6 mps 749 mmHg 65%
    14:00 +14°C° 0.1 mm 6 mps 748 mmHg 66%
    15:00 +15°C° 0.1 mm 6 mps 748 mmHg 67%
    16:00 +15°C° 0.1 mm 6 mps 748 mmHg 68%
    17:00 +14°C° 0.1 mm 6 mps 748 mmHg 71%
    18:00 +14°C° 0.1 mm 5 mps 748 mmHg 75%
    19:00 +13°C° 0.1 mm 4 mps 748 mmHg 78%
    20:00 +12°C° 0 mm 4 mps 748 mmHg 80%
    21:00 +12°C° 0 mm 4 mps 749 mmHg 83%
    22:00 +11°C° 0 mm 4 mps 749 mmHg 85%
    23:00 +11°C° 0 mm 4 mps 749 mmHg 85%

    24 June, Sunday

    Time Temperature Precipitation Wind Pressure Humidity
    00:00 +11°C° 0 mm 4 mps 749 mmHg 86%
    01:00 +10°C° 0 mm 4 mps 749 mmHg 87%
    02:00 +10°C° 0.1 mm 4 mps 749 mmHg 89%
    03:00 +10°C° 0.1 mm 4 mps 749 mmHg 90%
    04:00 +10°C° 0.1 mm 3 mps 749 mmHg 92%
    05:00 +10°C° 0.2 mm 4 mps 749 mmHg 90%
    06:00 +11°C° 0.2 mm 4 mps 749 mmHg 88%
    07:00 +12°C° 0.2 mm 4 mps 749 mmHg 86%
    08:00 +13°C° 0.1 mm 4 mps 749 mmHg 82%
    09:00 +14°C° 0.1 mm 4 mps 749 mmHg 78%
    10:00 +15°C° 0.1 mm 4 mps 749 mmHg 73%
    11:00 +17°C° 0.3 mm 4 mps 749 mmHg 71%
    12:00 +18°C° 0.3 mm 3 mps 749 mmHg 68%
    13:00 +19°C° 0.3 mm 3 mps 749 mmHg 65%
    14:00 +19°C° 0.3 mm 3 mps 748 mmHg 64%
    15:00 +19°C° 0.3 mm 3 mps 748 mmHg 64%
    16:00 +20°C° 0.3 mm 3 mps 748 mmHg 63%
    17:00 +19°C° 0.4 mm 3 mps 748 mmHg 69%
    18:00 +18°C° 0.4 mm 2 mps 748 mmHg 75%
    19:00 +17°C° 0.4 mm 2 mps 748 mmHg 81%
    20:00 +16°C° 0.1 mm 2 mps 749 mmHg 83%
    21:00 +15°C° 0.1 mm 2 mps 749 mmHg 86%
    22:00 +13°C° 0.1 mm 2 mps 749 mmHg 88%
    23:00 +13°C° 0 mm 2 mps 749 mmHg 90%

    25 June, Monday

    Time Temperature Precipitation Wind Pressure Humidity
    00:00 +13°C° 0 mm 2 mps 749 mmHg 91%
    01:00 +12°C° 0 mm 2 mps 749 mmHg 92%
    02:00 +12°C° 0 mm 2 mps 750 mmHg 93%
    03:00 +10°C° 0 mm 2 mps 750 mmHg 93%
    04:00 +11°C° 0 mm 1 mps 750 mmHg 94%
    05:00 +13°C° 0 mm 2 mps 750 mmHg 90%
    06:00 +14°C° 0 mm 2 mps 750 mmHg 85%
    07:00 +16°C° 0 mm 2 mps 750 mmHg 81%
    08:00 +17°C° 0.1 mm 2 mps 751 mmHg 75%
    09:00 +18°C° 0.1 mm 2 mps 751 mmHg 69%
    10:00 +20°C° 0.1 mm 2 mps 751 mmHg 62%
    11:00 +21°C° 0.2 mm 3 mps 750 mmHg 60%
    12:00 +21°C° 0.2 mm 3 mps 750 mmHg 57%
    13:00 +22°C° 0.2 mm 3 mps 750 mmHg 54%
    14:00 +22°C° 0.2 mm 3 mps 750 mmHg 54%
    15:00 +22°C° 0.2 mm 4 mps 750 mmHg 53%
    16:00 +22°C° 0.2 mm 4 mps 750 mmHg 53%
    17:00 +21°C° 0 mm 3 mps 750 mmHg 58%
    18:00 +20°C° 0 mm 3 mps 751 mmHg 62%
    19:00 +19°C° 0 mm 2 mps 751 mmHg 67%
    20:00 +17°C° 0 mm 2 mps 751 mmHg 69%
    21:00 +16°C° 0 mm 2 mps 751 mmHg 71%
    22:00 +14°C° 0 mm 1 mps 751 mmHg 73%
    23:00 +14°C° 0 mm 1 mps 751 mmHg 74%

    26 June, Tuesday

    Time Temperature Precipitation Wind Pressure Humidity
    00:00 +13°C° 0 mm 1 mps 752 mmHg 75%
    01:00 +13°C° 0 mm 1 mps 752 mmHg 77%
    02:00 +13°C° 0 mm 1 mps 751 mmHg 78%
    03:00 +12°C° 0 mm 1 mps 751 mmHg 80%
    04:00 +12°C° 0 mm 2 mps 751 mmHg 81%
    05:00 +14°C° 0 mm 2 mps 751 mmHg 76%
    06:00 +16°C° 0 mm 2 mps 752 mmHg 72%
    07:00 +18°C° 0 mm 2 mps 752 mmHg 67%
    08:00 +19°C° 0.1 mm 2 mps 752 mmHg 63%
    09:00 +20°C° 0.1 mm 3 mps 751 mmHg 60%
    10:00 +21°C° 0.1 mm 3 mps 751 mmHg 56%
    11:00 +20°C° 0.2 mm 3 mps 751 mmHg 61%
    12:00 +20°C° 0.2 mm 3 mps 751 mmHg 65%
    13:00 +19°C° 0.2 mm 3 mps 751 mmHg 69%
    14:00 +20°C° 0 mm 3 mps 751 mmHg 65%
    15:00 +21°C° 0 mm 3 mps 750 mmHg 60%
    16:00 +22°C° 0 mm 3 mps 750 mmHg 56%
    17:00 +21°C° 0 mm 2 mps 750 mmHg 62%
    18:00 +20°C° 0 mm 2 mps 750 mmHg 68%
    19:00 +20°C° 0 mm 1 mps 750 mmHg 74%
    20:00 +19°C° 0.2 mm 1 mps 750 mmHg 78%
    21:00 +18°C° 0.2 mm 1 mps 750 mmHg 82%
    22:00 +16°C° 0.2 mm 1 mps 750 mmHg 86%
    23:00 +15°C° 0.3 mm 1 mps 750 mmHg 89%
    Show more